Regional Weather Roundup
Issued by NWS Sterling, VA

Home | Current Version | Previous Version | Text Only | Print | Product List | Glossary Off
Versions: 1 2 3 4 5 6 7 8 9 10 11 12 13 14 15 16 17 18 19 20 21 22 23 24 25 26 27 28 29 30 31 32 33 34 35 36 37 38 39 40 41 42 43 44 45 46 47 48 49 50

382
ASUS41 KLWX 232010
RWRLWX

REGIONAL WEATHER ROUNDUP
NATIONAL WEATHER SERVICE BALTIMORE MD/WASHINGTON DC
300 PM EST THU FEB 23 2017

Note: "FAIR" indicates few or no clouds below 12,000 feet
with no significant weather and/or obstructions to visibility.
 TC=TEMPERATURE CELSIUS

 * =Non NWS site. Station does not report precipitation (e.g. rain,
    snow, etc.), thunder, or fog.

DCZ001-MDZ009-015-VAZ040>042-051-053>054-232100-
WASHINGTON METRO

CITY           SKY/WX    TMP DP  RH WIND       PRES   REMARKS
WASHINGTON NAT MOSUNNY   72  54  53 S17       29.80F
DULLES         MOSUNNY   76  49  38 SW12      29.79F
ANDREWS AFB    SUNNY     74  54  48 S12G18    29.80F
FT BELVOIR     SUNNY     76  53  45 S12G18    29.80F
QUANTICO       PTSUNNY   63  53  70 S10       29.82F
COLLEGE PARK*  SUNNY     73  52  46 S8        29.80F
LEESBURG*      SUNNY     79  54  41 MISG      29.80S
MANASSAS*        N/A     78  51  38 S13       29.80F
GAITHERSBURG*  SUNNY     75  52  43 S8        29.83F

$$

MDZ006>007-011-014-232100-
BALTIMORE METRO

CITY           SKY/WX    TMP DP  RH WIND       PRES   REMARKS
BWI AIRPORT    MOSUNNY   76  52  43 S14G21    29.79F
MD SCIENCE CTR   N/A     71  52  50 MISG      29.80F
MARTIN STATE   MOSUNNY   64  57  77 SE6       29.83F
ANNAPOLIS      SUNNY     54  49  83 SE12      29.82F
FORT MEADE*    SUNNY     75  50  41 SW12      29.82F

$$

MDZ012-015-019>023-232100-
MARYLAND EASTERN SHORE

CITY           SKY/WX    TMP DP  RH WIND       PRES   REMARKS
OCEAN CITY     SUNNY     57  50  77 SW9       29.89S
SALISBURY      SUNNY     72  50  45 SW16G28   29.86F
BAY BRIDGE AP* SUNNY     70  55  60 S13       29.82F
CAMBRIDGE*     SUNNY     68  55  64 SE14      29.85F
EASTON*        SUNNY     73  54  49 SW10      29.87F

$$

MDZ017>025-232100-
SOUTHERN MARYLAND

CITY           SKY/WX    TMP DP  RH WIND       PRES   REMARKS
PATUXENT RIVER MOSUNNY   72  54  53 SE9G17    29.83F
ST INIGOES     SUNNY     73  53  49 S12       29.84S
LEONARDTOWN*   SUNNY     73  52  46 SW10      29.85S

$$

MDZ003>005-232100-
NORTH CENTRAL MARYLAND

CITY           SKY/WX    TMP DP  RH WIND       PRES   REMARKS
FREDERICK*     MOSUNNY   77  54  44 SW8G18    29.81F
HAGERSTOWN APT SUNNY     76  52  43 SE13      29.77F
WESTMINSTER*   MOSUNNY   75  54  46 W10G16    29.80F

$$

MDZ501>502-232100-
WESTERN MARYLAND

CITY           SKY/WX    TMP DP  RH WIND       PRES   REMARKS
OAKLAND*       MOSUNNY   59  50  72 SW9       29.85F
CUMBERLAND*    SUNNY     75  46  35 SW15      29.81F

$$

VAZ025>031-232100-
SHENANDOAH VALLEY

CITY           SKY/WX    TMP DP  RH WIND       PRES   REMARKS
WINCHESTER*    SUNNY     75  50  41 SW6       29.78F
FRONT ROYAL*   MOSUNNY   77  50  38 SW6       29.78F
LURAY*         MOSUNNY   73  50  43 SW8       29.80S
NEW MARKET*    SUNNY     75  49  40 SW7       29.79F
STAUNTON*      MOSUNNY   70  49  46 S5        29.84S
WAYNESBORO*    CLOUDY    69  49  48 CALM      29.84F

$$

WVZ021-048>050-054>055-232100-
EASTERN WEST VIRGINIA PANHANDLE

CITY           SKY/WX    TMP DP  RH WIND       PRES   REMARKS
MARTINSBURG    CLOUDY    75  50  41 SW5       29.77F
PETERSBURG*    MOSUNNY   77  51  39 S9        29.79F

$$

VAZ036>039-050-232100-
CENTRAL FOOTHILLS

CITY           SKY/WX    TMP DP  RH WIND       PRES   REMARKS
CHARLOTTESVILL SUNNY     77  52  41 S16       29.81F
CULPEPER*      SUNNY     78  54  43 S9        29.81F
ORANGE*        MOSUNNY   73  52  46 S13       29.83F
GORDONSVILLE*  MOSUNNY   74  54  48 S12G17    29.81F
WARRENTON*     SUNNY     78  46  31 SW13      29.80F

$$

VAZ055>057-232100-
NORTH AND CENTRAL PIEDMONT

CITY           SKY/WX    TMP DP  RH WIND       PRES   REMARKS
FREDERICKSBRG* MOSUNNY   76  55  48 S14       29.81F
STAFFORD*      MOSUNNY   75  52  43 SW6G16    29.86S

$$

NCZ024-NYZ072-PAZ021-071-VAZ022-071-232100-
OTHER REGIONAL OBSERVATIONS

CITY           SKY/WX    TMP DP  RH WIND       PRES   REMARKS
NEW YORK CITY  SUNNY     64  51  62 VRB3      29.83F
PHILADELPHIA   PTSUNNY   72  53  51 SW14      29.82S
PITTSBURGH     CLOUDY    67  54  63 W7G17     29.79R
ROANOKE        PTSUNNY   71  52  50 S8        29.86F
RICHMOND       MOSUNNY   75  51  43 S13G21    29.85F
RALEIGH        PTSUNNY   73  49  42 S12G17    29.87F

$$

ANZ530>537-232100-
MARINE OBSERVATIONS

STATION/POSITION TIME  TEMP    WIND        PRES
                       AIR SEA DIR/SP/G
                 (UTC) (F)     (DEG/KT/KT) (MB)
THOMAS PT LIGHT  2000   62 44  160/ 18/ 19   N/A
BALT KEY BRIDGE  1948   66     140/ 15/ 16 1008.8F
COVE POINT       1948   49     180/ 13/ 15 1011.0F
LEWISETTA        1948   71 48  220/ 10/ 13 1010.3F
SOLOMONS ISLAND  1942   67 46  220/ 10/ 13   N/A
PINEY POINT      1854          220/  7/  9   N/A

$$





USA.gov is the U.S. government's official web portal to all federal, state and local government web resources and services.